Regional Weather Roundup
Issued by NWS

Home | Current Version | Previous Version | Graphics & Text | Print | Product List | Glossary On
Versions: 1 2 3 4 5 6 7 8 9 10 11 12 13 14 15 16 17 18 19 20 21 22 23 24 25 26 27 28 29 30 31 32 33 34 35 36 37 38 39 40 41 42 43 44 45 46 47 48 49 50
000
ASUS43 KOAX 240910
RWRNE

WEATHER ROUNDUP FOR NEBRASKA
NATIONAL WEATHER SERVICE OMAHA NE
400 AM CDT WED MAY 24 2017

NOTES: SATELLITE DATA IS BEING USED TO AUGMENT CLOUD COVER ABOVE
       12000 FEET.
       "FAIR" INDICATES FEW OR NO CLOUDS BELOW 12,000 FEET WITH NO
       SIGNIFICANT WEATHER AND/OR OBSTRUCTIONS TO VISIBILITY.

  * THESE STATIONS DO NOT REPORT WEATHER SUCH AS RAIN...SNOW OR FOG.

NEZ001>004-019>022-054>056-241000-
NEBRASKA PANHANDLE

CITY           SKY/WX    TMP DP  RH WIND       PRES   REMARKS
SCOTTSBLUFF    CLOUDY    39  35  86 E7        29.92F WCI  34
ALLIANCE       CLEAR     34  31  88 CALM      29.92F
CHADRON        CLEAR     40  35  83 CALM      29.90F
GORDON         FAIR      32  30  92 CALM      29.91F
KIMBALL        CLOUDY    37  34  91 SW8       29.95F WCI  30
SIDNEY         CLEAR     31  30  96 SW8       29.96F WCI  23
$$

NEZ057>060-069>072-079>082-241000-
SOUTHWEST NEBRASKA

CITY           SKY/WX    TMP DP  RH WIND       PRES   REMARKS
NORTH PLATTE   CLEAR     33  32  96 NW6       29.93F WCI  28
IMPERIAL       CLEAR     37  33  85 NW3       29.94F
LEXINGTON      PTCLDY    41  38  91 NW8       29.91F
MCCOOK         CLEAR     39  37  92 NW9       29.93F WCI  33
OGALLALA       CLEAR     37  35  94 W3        29.94F
$$

NEZ005>010-023>029-035>040-094-241000-
NORTH CENTRAL NEBRASKA

CITY           SKY/WX    TMP DP  RH WIND       PRES   REMARKS
VALENTINE      CLEAR     35  32  88 W6        29.91F WCI  30
AINSWORTH      CLEAR     37  37  97 W6        29.90F WCI  33
BROKEN BOW     CLEAR     43  39  86 NW13      29.89F
O`NEILL        CLEAR     43  40  90 NW7       29.88S
ORD            CLEAR     40  37  89 NW7       29.87F
THEDFORD       CLEAR     35  34  96 W5        29.92F WCI  31
$$

NEZ041-046>049-061>064-073>077-083>087-241000-
SOUTH CENTRAL NEBRASKA

CITY           SKY/WX    TMP DP  RH WIND       PRES   REMARKS
GRAND ISLAND   CLOUDY    49  43  80 NW12      29.86F
AURORA         PTCLDY    46  43  87 NW9       29.85F
HASTINGS       CLOUDY    47  41  80 N9        29.86F
HEBRON         PTCLDY    48  44  86 N8        29.83F
HOLDREGE       CLOUDY    46  41  84 NW9       29.89F
KEARNEY *      CLEAR     46  39  76 NW7       29.88S
YORK           CLEAR     46  45  93 NW9       29.84S
$$

NEZ011>018-030>034-042>045-241000-
NORTHEAST NEBRASKA

CITY           SKY/WX    TMP DP  RH WIND       PRES   REMARKS
NORFOLK        CLEAR     45  41  86 NW7       29.83F
ALBION         CLEAR     43  40  88 N6        29.86S
BLAIR          CLOUDY    49  46  89 NW13      29.78S
FREMONT        CLEAR     47  46  97 NW9       29.81S
TEKAMAH        PTCLDY    48  45  89 NW9       29.78F
WAYNE          CLEAR     45  45  99 NW7       29.82S
$$

NEZ050>053-065>068-078-088>093-241000-
SOUTHEAST NEBRASKA

CITY           SKY/WX    TMP DP  RH WIND       PRES   REMARKS
LINCOLN        CLEAR     49  45  86 NW10      29.82F
OMAHA EPPLEY   CLOUDY    51  46  83 N12       29.77F
BEATRICE       CLOUDY    49  46  92 NW10      29.81S
FALLS CITY     CLOUDY    50  47  89 NW9       29.75F
NEBRASKA CITY  CLOUDY    51  46  84 N13       29.77F
PLATTSMOUTH    CLOUDY    50  45  84 NW10      29.77F
$$

NEZ044-045-051>053-067-241000-
OMAHA AREA

CITY           SKY/WX    TMP DP  RH WIND       PRES   REMARKS
OMAHA EPPLEY   CLOUDY    51  46  83 N12       29.77F
BLAIR          CLOUDY    49  46  89 NW13      29.78S
FREMONT        CLEAR     47  46  97 NW9       29.81S
MILLARD        CLOUDY    52  48  86 NW9       29.78F
OFFUTT AFB     CLOUDY    50  46  86 NW9       29.76F
PLATTSMOUTH    CLOUDY    50  45  84 NW10      29.77F
WAHOO          FAIR      47  45  93 NW9       29.80F
$$




USA.gov is the U.S. government's official web portal to all federal, state and local government web resources and services.